Weather History for KVPC - December, 2013

Change the Weather History Date:

Wednesday, December 4, 2013

  Actual Average Record
Temperature  
Mean Temperature 64 °F 45 °F  
Max Temperature 73 °F 56 °F 73 °F (2012)
Min Temperature 55 °F 34 °F 26 °F (2006)
Degree Days  
Heating Degree Days 1 20  
Month to date heating degree days 49 78  
Since 1 July heating degree days 704 687  
Growing Degree Days 14 (Base 50)    
Moisture  
Dew Point 58 °F    
Average Humidity 81    
Maximum Humidity 100    
Minimum Humidity 61    
Precipitation  
Precipitation T in 0.17 in 1.62 in (2005)
Month to date precipitation 0.63 0.68  
Year to date precipitation 46.37  
Snow  
Snow 0.00 in - - ()
Month to date snowfall 0.0  
Since 1 July snowfall 0.0  
Snow Depth 0.00 in    
Sea Level Pressure  
Sea Level Pressure 29.95 in    
Wind  
Wind Speed 5 mph (ESE)    
Max Wind Speed 13 mph    
Max Gust Speed 18 mph    
Visibility 7 miles    
Events      
T = Trace of Precipitation, MM = Missing Value Source: NWS Daily Summary

Daily Weather History Graph

Daily Weather History Graph

Search for Another Location

Airport or City:

Trip Planner

Search our weather history database for the weather conditions in past years. The results will help you decide how hot, cold, wet, or windy it might be!

Date:

Astronomy

Dec. 04, 2013 Rise Set
Actual Time 7:29 AM EST 5:29 PM EST
Civil Twilight 7:02 AM EST 5:57 PM EST
Nautical Twilight 6:31 AM EST 6:28 PM EST
Astronomical Twilight 6:00 AM EST 6:58 PM EST
Moon 8:58 AM EST (12/4) 7:37 PM EST (12/4)
Length of Visible Light 10h 55m
Length of Day
10h 00m
Waxing Crescent, 4% of the Moon is Illuminated
Dec 4
Waxing Crescent
Dec 9
First Quarter
Dec 17
Full
Dec 25
Last Quarter
Jan 1
New

Hourly Weather History & Observations

Time (EST) Temp. Dew Point Humidity Pressure Visibility Wind Dir Wind Speed Gust Speed Precip Events Conditions
12:53 AM 55.0 °F 54.0 °F 96% 29.89 in 4.0 mi East 3.5 mph - N/A   Overcast
1:33 AM 55.4 °F 53.6 °F 94% 29.91 in 2.5 mi Variable 5.8 mph - N/A   Overcast
1:53 AM 55.0 °F 54.0 °F 96% 29.89 in 2.0 mi East 3.5 mph - N/A   Overcast
2:09 AM 55.4 °F 53.6 °F 94% 29.92 in 3.0 mi ENE 3.5 mph - N/A   Overcast
2:53 AM 55.0 °F 54.0 °F 96% 29.90 in 5.0 mi East 3.5 mph - N/A   Overcast
3:53 AM 55.9 °F 54.0 °F 93% 29.90 in 7.0 mi East 3.5 mph - N/A   Overcast
4:53 AM 55.9 °F 55.0 °F 97% 29.91 in 7.0 mi East 4.6 mph - N/A   Overcast
5:02 AM 55.4 °F 55.4 °F 100% 29.93 in 7.0 mi ENE 4.6 mph - N/A   Overcast
5:33 AM 55.4 °F 53.6 °F 94% 29.94 in 7.0 mi Calm Calm - N/A   Overcast
5:53 AM 55.9 °F 54.0 °F 93% 29.92 in 7.0 mi ENE 3.5 mph - N/A   Overcast
6:53 AM 55.9 °F 54.0 °F 93% 29.94 in 6.0 mi East 3.5 mph - N/A   Overcast
7:44 AM 55.4 °F 53.6 °F 94% 29.97 in 1.8 mi East 4.6 mph - N/A   Overcast
7:53 AM 55.9 °F 54.0 °F 93% 29.95 in 1.2 mi East 3.5 mph - N/A   Overcast
8:25 AM 55.4 °F 55.4 °F 100% 29.98 in 0.8 mi East 5.8 mph - N/A   Overcast
8:46 AM 57.2 °F 55.4 °F 94% 29.99 in 1.5 mi East 4.6 mph - N/A   Overcast
8:53 AM 57.0 °F 55.9 °F 96% 29.97 in 2.5 mi East 4.6 mph - N/A   Overcast
9:03 AM 57.2 °F 55.4 °F 94% 30.00 in 4.0 mi Calm Calm - N/A   Overcast
9:53 AM 59.0 °F 57.9 °F 96% 29.99 in 5.0 mi Calm Calm - N/A   Overcast
10:26 AM 60.8 °F 57.2 °F 88% 30.01 in 7.0 mi ENE 4.6 mph - N/A   Overcast
10:49 AM 64.4 °F 60.8 °F 88% 30.01 in 10.0 mi SSE 8.1 mph - N/A   Mostly Cloudy
10:50 AM 64.9 °F 60.1 °F 84% 29.99 in 10.0 mi SSE 6.9 mph - N/A   Mostly Cloudy
11:53 AM 69.1 °F 60.1 °F 73% 29.96 in 10.0 mi South 8.1 mph - N/A   Overcast
12:30 PM 69.8 °F 60.8 °F 73% 29.96 in 10.0 mi South 10.4 mph 16.1 mph N/A   Mostly Cloudy
12:53 PM 71.1 °F 60.1 °F 68% 29.94 in 10.0 mi South 9.2 mph - N/A   Mostly Cloudy
1:53 PM 73.0 °F 60.1 °F 64% 29.91 in 10.0 mi Variable 5.8 mph - N/A   Mostly Cloudy
2:53 PM 72.0 °F 57.9 °F 61% 29.90 in 10.0 mi Variable 5.8 mph - N/A   Overcast
3:53 PM 70.0 °F 60.1 °F 71% 29.91 in 10.0 mi SSE 5.8 mph - N/A   Mostly Cloudy
4:53 PM 69.1 °F 61.0 °F 75% 29.92 in 10.0 mi SSE 4.6 mph - N/A   Mostly Cloudy
5:53 PM 66.0 °F 60.1 °F 81% 29.95 in 10.0 mi SSE 5.8 mph - N/A   Partly Cloudy
6:53 PM 66.0 °F 60.1 °F 81% 29.96 in 9.0 mi SSE 4.6 mph - N/A   Partly Cloudy
7:53 PM 64.9 °F 60.1 °F 84% 29.97 in 10.0 mi SSE 8.1 mph - N/A   Partly Cloudy
8:53 PM 64.9 °F 61.0 °F 87% 29.98 in 10.0 mi SE 6.9 mph - N/A   Scattered Clouds
9:53 PM 64.9 °F 61.0 °F 87% 29.98 in 10.0 mi SSE 5.8 mph - N/A   Overcast
10:53 PM 64.0 °F 61.0 °F 90% 30.00 in 8.0 mi Calm Calm - 0.00 in   Overcast
11:01 PM 64.4 °F 62.6 °F 94% 30.03 in 8.0 mi East 3.5 mph - N/A   Overcast
11:49 PM 64.4 °F 62.6 °F 94% 30.03 in 10.0 mi SSE 4.6 mph - N/A   Overcast
11:53 PM 64.9 °F 62.1 °F 90% 30.00 in 10.0 mi SSE 4.6 mph - N/A   Overcast